Peoria, IL

1:32 PM CST on November 13, 2019 (GMT -0600)
Greater Peoria Regional

Weather History for KPIA - September, 2019

Change the Weather History Date:

Wednesday, September 25, 2019

  Actual Average Record
Temperature  
Mean Temperature 72 °F 62 °F  
Max Temperature 81 °F 73 °F 92 °F (1891)
Min Temperature 62 °F 51 °F 33 °F (1907)
Degree Days  
Heating Degree Days 0 5  
Month to date heating degree days 0 55  
Since 1 July heating degree days 0 61  
Cooling Degree Days 6 2  
Month to date cooling degree days 198 108  
Year to date cooling degree days 1180 1015  
Growing Degree Days 22 (Base 50)    
Moisture  
Dew Point 57 °F    
Average Humidity 67    
Maximum Humidity 90    
Minimum Humidity 42    
Precipitation  
Precipitation 0.05 in 0.10 in 1.71 in (1941)
Month to date precipitation 3.73 2.67  
Year to date precipitation 37.25 27.62  
Snow  
Snow 0.00 in 0.00 in 1.00 in (1942)
Month to date snowfall 0.0 0.0  
Since 1 July snowfall 0.0 0.0  
Since 1 September snowfall 0.0 0.0  
Snow Depth 0.00 in    
Sea Level Pressure  
Sea Level Pressure 29.80 in    
Wind  
Wind Speed 8 mph ()    
Max Wind Speed 15 mph    
Max Gust Speed 22 mph    
Visibility 9.9 miles    
Events Rain , Thunderstorm    
T = Trace of Precipitation, MM = Missing Value Source: Averaged Metar Reports

Daily Weather History Graph

Daily Weather History Graph

Search for Another Location

Airport or City:

Astronomy

Sep. 25, 2019 Rise Set
Actual Time 6:49 AM CDT 6:51 PM CDT
Civil Twilight 6:21 AM CDT 7:18 PM CDT
Nautical Twilight 5:49 AM CDT 7:50 PM CDT
Astronomical Twilight 5:17 AM CDT 8:22 PM CDT
Moon 2:41 AM CDT (9/25) 5:24 PM CDT (9/25)
Length of Visible Light 12h 56m
Length of Day
12h 02m
Waning Crescent, 14% of the Moon is Illuminated
Sep 25
Waning Crescent
Sep 28
New
Oct 5
First Quarter
Oct 13
Full
Oct 21
Last Quarter

Hourly Weather History & Observations

Time (CDT) Temp. Heat Index Dew Point Humidity Pressure Visibility Wind Dir Wind Speed Gust Speed Precip Events Conditions
12:54 AM 64.9 °F - 55.9 °F 73% 29.80 in 10.0 mi SSW 11.5 mph - N/A   Mostly Cloudy
1:54 AM 66.0 °F - 55.9 °F 70% 29.78 in 10.0 mi SSW 11.5 mph - N/A   Scattered Clouds
2:54 AM 64.9 °F - 55.9 °F 73% 29.72 in 10.0 mi South 13.8 mph - N/A   Clear
3:54 AM 64.9 °F - 55.0 °F 70% 29.73 in 10.0 mi South 13.8 mph - N/A   Partly Cloudy
4:54 AM 64.9 °F - 55.9 °F 73% 29.78 in 10.0 mi WNW 9.2 mph - 0.00 in Thunderstorm Thunderstorm
5:09 AM 63.0 °F - 57.0 °F 81% 29.78 in 6.0 mi Variable 4.6 mph - 0.01 in Rain , Thunderstorm Rain
5:25 AM 63.0 °F - 59.0 °F 87% 29.77 in 10.0 mi SSE 3.5 mph - 0.05 in   Overcast
5:54 AM 63.0 °F - 59.0 °F 87% 29.75 in 10.0 mi South 5.8 mph - 0.05 in   Mostly Cloudy
6:54 AM 63.0 °F - 59.0 °F 87% 29.76 in 10.0 mi SSW 8.1 mph - 0.00 in   Overcast
7:54 AM 64.0 °F - 59.0 °F 84% 29.78 in 10.0 mi SSW 6.9 mph - N/A   Overcast
8:54 AM 66.0 °F - 60.1 °F 81% 29.78 in 10.0 mi SW 10.4 mph - N/A   Mostly Cloudy
9:54 AM 68.0 °F - 61.0 °F 78% 29.80 in 10.0 mi WSW 9.2 mph - N/A   Overcast
10:54 AM 70.0 °F - 64.0 °F 81% 29.81 in 10.0 mi West 8.1 mph - N/A   Overcast
11:54 AM 75.0 °F - 64.9 °F 71% 29.80 in 10.0 mi WNW 8.1 mph - N/A   Mostly Cloudy
12:01 PM 75.9 °F - 66.0 °F 71% 29.81 in 10.0 mi West 9.2 mph - N/A   Scattered Clouds
12:54 PM 78.1 °F - 62.1 °F 58% 29.79 in 10.0 mi West 6.9 mph - N/A   Clear
1:54 PM 80.1 °F 80.7 °F 59.0 °F 48% 29.77 in 10.0 mi North 6.9 mph 17.3 mph N/A   Clear
2:54 PM 80.1 °F 80.4 °F 57.0 °F 45% 29.77 in 10.0 mi West 6.9 mph - N/A   Clear
3:54 PM 81.0 °F 81.3 °F 59.0 °F 47% 29.78 in 10.0 mi WNW 6.9 mph - N/A   Clear
4:54 PM 80.1 °F 80.1 °F 55.0 °F 42% 29.79 in 10.0 mi WNW 9.2 mph - N/A   Clear
5:54 PM 77.0 °F - 55.0 °F 47% 29.80 in 10.0 mi WNW 8.1 mph - N/A   Clear
6:54 PM 72.0 °F - 54.0 °F 53% 29.83 in 10.0 mi NW 4.6 mph - N/A   Clear
7:54 PM 68.0 °F - 54.0 °F 61% 29.85 in 10.0 mi NW 4.6 mph - N/A   Clear
8:54 PM 66.9 °F - 51.1 °F 57% 29.88 in 10.0 mi NW 5.8 mph - N/A   Mostly Cloudy
9:54 PM 64.9 °F - 48.9 °F 56% 29.90 in 10.0 mi NW 4.6 mph - 0.00 in   Clear
10:54 PM 64.0 °F - 50.0 °F 60% 29.91 in 10.0 mi NW 4.6 mph - N/A   Overcast
11:54 PM 63.0 °F - 50.0 °F 63% 29.91 in 10.0 mi NW 3.5 mph - N/A   Clear